EW5404 Weather Reports


time (UTC)temp
F
wind
direction
speed
knots
gust
knots
rain 1hr
in
rain 24hr
in
rain mn
in
humidity
%
barometer
mb
20260505200054 79 253 1.7 8.7 0.00 0.00 0.00 40 1014.9
20260505194607 80 159 2.6 10.4 0.00 0.00 0.00 38 1015.3
20260505193050 80 259 0.9 5.2 0.00 0.00 0.00 38 1015.6
20260505191547 80 336 0.0 4.3 0.00 0.00 0.00 38 1015.7
20260505190047 79 336 1.7 7.0 0.00 0.00 0.00 38 1015.7
20260505184546 79 302 0.0 4.3 0.00 0.00 0.00 37 1015.9
20260505183045 78 338 0.0 4.3 0.00 0.00 0.00 38 1016.1
20260505181550 79 332 1.7 5.2 0.00 0.00 0.00 35 1016.3
20260505180044 79 246 0.9 7.8 0.00 0.00 0.00 32 1016.8
20260505174549 78 227 1.7 11.3 0.00 0.00 0.00 37 1016.9
20260505173042 78 355 1.7 13.0 0.00 0.00 0.00 37 1017.0
20260505171541 78 340 2.6 8.7 0.00 0.00 0.00 38 1017.0
20260505170038 77 180 2.6 7.8 0.00 0.00 0.00 40 1016.8
20260505164535 76 240 0.0 5.2 0.00 0.00 0.00 44 1016.9
20260505163031 75 13 0.9 4.3 0.00 0.00 0.00 47 1017.2
20260505161529 74 96 1.7 7.8 0.00 0.00 0.00 47 1017.2
20260505153018 73 309 0.9 4.3 0.00 0.00 0.00 50 1017.5
20260505151516 72 302 0.0 4.3 0.00 0.00 0.00 54 1017.8
20260505130104 59 278 0.0 0.0 0.00 0.00 0.00 80 1017.2
20260505124544 58 278 0.0 0.0 0.00 0.00 0.00 83 1017.2
20260505123044 56 278 0.0 0.0 0.00 0.00 0.00 87 1017.2
20260505121637 54 204 0.0 0.0 0.00 0.00 0.00 90 1017.1
20260505120037 52 202 0.0 0.0 0.00 0.00 0.00 91 1017.0
20260505114536 51 202 0.0 0.9 0.00 0.00 0.00 91 1016.9
20260505113036 51 231 0.0 0.0 0.00 0.00 0.00 91 1016.9
20260505111539 51 231 0.0 0.0 0.00 0.00 0.00 90 1017.0
20260505101528 51 315 0.0 0.0 0.00 0.00 0.00 88 1016.7
20260505100032 51 315 0.0 0.0 0.00 0.00 0.00 89 1016.6
20260505094526 51 315 0.0 0.0 0.00 0.00 0.00 88 1016.6
20260505093025 51 315 0.0 0.0 0.00 0.00 0.00 88 1016.6
20260505091523 51 315 0.0 0.0 0.00 0.00 0.00 87 1016.6
20260505090022 51 315 0.0 0.0 0.00 0.00 0.00 86 1016.5
20260505084522 52 315 0.0 0.0 0.00 0.00 0.00 86 1016.5
20260505083018 52 315 0.0 0.0 0.00 0.00 0.00 85 1016.3
20260505081518 52 315 0.0 0.0 0.00 0.00 0.00 85 1016.4
20260505080013 53 315 0.0 0.0 0.00 0.00 0.00 84 1016.2
20260505074512 53 315 0.0 0.0 0.00 0.00 0.00 83 1016.1
20260505073012 53 315 0.0 0.0 0.00 0.00 0.00 83 1016.0
20260505071523 53 315 0.0 0.0 0.00 0.00 0.00 82 1016.0
20260505070010 54 315 0.0 0.0 0.00 0.00 0.00 82 1015.8
20260505064514 54 315 0.0 0.0 0.00 0.00 0.00 82 1015.9
20260505063012 54 315 0.0 0.0 0.00 0.00 0.00 81 1015.7
20260505061508 55 315 0.0 0.0 0.00 0.00 0.00 81 1015.8
20260505054600 56 315 0.0 0.0 0.00 0.00 0.00 79 1015.9
20260505053104 56 315 0.0 0.0 0.00 0.00 0.00 77 1016.1
20260505051554 57 315 0.0 0.0 0.00 0.00 0.00 74 1016.2
20260505041545 60 315 0.0 0.0 0.00 0.00 0.00 66 1016.3
20260505040044 61 315 0.0 0.0 0.00 0.00 0.00 66 1016.2
20260505034540 61 315 0.0 0.0 0.00 0.00 0.00 65 1016.4
20260505033045 62 315 0.0 0.0 0.00 0.00 0.00 63 1016.3
20260505031539 62 315 0.0 0.0 0.00 0.00 0.00 62 1016.4
20260505030039 63 315 0.0 0.0 0.00 0.00 0.00 61 1016.3
20260505024537 63 315 0.0 0.0 0.00 0.00 0.00 60 1016.4
20260505023039 64 315 0.0 0.0 0.00 0.00 0.00 58 1016.3
20260505021537 65 315 0.0 0.0 0.00 0.00 0.00 56 1016.1
20260505020036 66 315 0.0 0.0 0.00 0.00 0.00 55 1016.0
20260505014536 67 315 0.0 0.0 0.00 0.00 0.00 53 1015.8
20260505013036 68 315 0.0 0.0 0.00 0.00 0.00 50 1015.7
20260505011543 69 315 0.0 0.0 0.00 0.00 0.00 49 1015.6
20260505010038 70 315 0.0 0.0 0.00 0.00 0.00 47 1015.6
20260505004535 70 315 0.0 0.0 0.00 0.00 0.00 46 1015.5
20260505003033 71 315 0.0 0.0 0.00 0.00 0.00 44 1015.4
20260505001533 72 315 0.0 0.0 0.00 0.00 0.00 42 1015.5
20260505000033 73 315 0.0 0.0 0.00 0.00 0.00 41 1015.3
20260504234529 74 315 0.0 0.9 0.00 0.00 0.00 39 1015.1
20260504233029 75 23 0.0 3.5 0.00 0.00 0.00 37 1014.9
20260504231528 76 201 0.0 5.2 0.00 0.00 0.00 34 1014.8
20260504230028 77 355 0.0 4.3 0.00 0.00 0.00 32 1014.8
20260504224527 77 315 0.0 0.0 0.00 0.00 0.00 30 1014.8
20260504223026 77 335 0.9 7.8 0.00 0.00 0.00 30 1014.9
20260504221524 78 342 0.0 5.2 0.00 0.00 0.00 30 1014.9
20260504220025 79 298 0.0 7.0 0.00 0.00 0.00 32 1015.0
20260504214523 80 268 0.0 3.5 0.00 0.00 0.00 30 1014.9
20260504213023 80 315 0.9 4.3 0.00 0.00 0.00 29 1014.9
20260504211521 81 51 0.0 4.3 0.00 0.00 0.00 27 1014.8
20260504210024 81 43 0.0 5.2 0.00 0.00 0.00 30 1014.9
20260504204520 81 306 0.0 6.1 0.00 0.00 0.00 28 1015.0
20260504203019 81 344 0.0 7.0 0.00 0.00 0.00 29 1015.2
20260504201516 81 48 0.0 5.2 0.00 0.00 0.00 29 1015.2